Time,TemperatureF,DewpointF,PressureIn,WindDirection,WindDirectionDegrees,WindSpeedMPH,WindSpeedGustMPH,Humidity,HourlyPrecipIn,Conditions,Clouds,dailyrainin,SoftwareType,DateUTC
2013-05-25 00:01:00,79.5,67.1,30.05,ENE,68,1.7,5.5,66,0.00,,,0.00,WUHU216HW,2013-05-25 04:01:00,
2013-05-25 00:06:00,79.3,66.9,30.05,ENE,68,4.4,5.5,66,0.00,,,0.00,WUHU216HW,2013-05-25 04:06:00,
2013-05-25 00:11:00,79.3,66.9,30.05,ENE,68,2.9,4.4,66,0.00,,,0.00,WUHU216HW,2013-05-25 04:11:00,
2013-05-25 00:16:00,79.1,67.2,30.05,ENE,68,3.1,3.5,67,0.00,,,0.00,WUHU216HW,2013-05-25 04:16:00,
2013-05-25 00:21:00,78.9,67.0,30.05,ENE,68,3.5,5.1,67,0.00,,,0.00,WUHU216HW,2013-05-25 04:21:00,
2013-05-25 00:26:00,78.6,66.7,30.05,ENE,68,3.1,6.2,67,0.00,,,0.00,WUHU216HW,2013-05-25 04:26:00,
2013-05-25 00:31:00,78.6,67.1,30.05,ENE,68,4.9,6.2,68,0.00,,,0.00,WUHU216HW,2013-05-25 04:31:00,
2013-05-25 00:36:00,78.6,67.1,30.04,ENE,68,3.8,4.9,68,0.00,,,0.00,WUHU216HW,2013-05-25 04:36:00,
2013-05-25 00:41:00,78.6,67.1,30.04,ENE,68,2.4,4.9,68,0.00,,,0.00,WUHU216HW,2013-05-25 04:41:00,
2013-05-25 00:46:00,78.6,67.1,30.04,ENE,68,2.2,4.0,68,0.00,,,0.00,WUHU216HW,2013-05-25 04:46:00,
2013-05-25 00:51:00,78.6,67.1,30.04,ENE,68,3.5,4.2,68,0.00,,,0.00,WUHU216HW,2013-05-25 04:51:00,
2013-05-25 00:56:00,78.6,67.1,30.04,ENE,68,2.6,4.2,68,0.00,,,0.00,WUHU216HW,2013-05-25 04:56:00,
2013-05-25 01:01:00,78.6,67.1,30.04,ENE,68,4.0,6.4,68,0.00,,,0.00,WUHU216HW,2013-05-25 05:01:00,
2013-05-25 01:06:00,78.4,66.9,30.04,ENE,68,2.6,6.4,68,0.00,,,0.00,WUHU216HW,2013-05-25 05:06:00,
2013-05-25 01:11:00,78.2,66.8,30.04,ENE,68,2.2,5.5,68,0.00,,,0.00,WUHU216HW,2013-05-25 05:11:00,
2013-05-25 01:16:00,78.0,67.0,30.04,ENE,68,2.9,5.5,68,0.00,,,0.00,WUHU216HW,2013-05-25 05:16:00,
2013-05-25 01:21:00,78.0,67.0,30.04,ENE,68,2.9,4.4,69,0.00,,,0.00,WUHU216HW,2013-05-25 05:21:00,
2013-05-25 01:26:00,78.0,67.0,30.04,ENE,68,2.0,4.9,69,0.00,,,0.00,WUHU216HW,2013-05-25 05:26:00,
2013-05-25 01:31:00,77.9,66.9,30.04,ENE,68,2.9,4.9,69,0.00,,,0.00,WUHU216HW,2013-05-25 05:31:00,
2013-05-25 01:36:00,77.9,66.9,30.04,ENE,68,3.8,4.9,69,0.00,,,0.00,WUHU216HW,2013-05-25 05:36:00,
2013-05-25 01:41:00,77.7,67.2,30.04,ENE,68,1.7,5.1,70,0.00,,,0.00,WUHU216HW,2013-05-25 05:41:00,
2013-05-25 01:46:00,77.5,67.0,30.04,ENE,68,4.2,5.1,70,0.00,,,0.00,WUHU216HW,2013-05-25 05:46:00,
2013-05-25 01:51:00,77.5,67.0,30.04,ENE,68,1.3,4.4,70,0.00,,,0.00,WUHU216HW,2013-05-25 05:51:00,
2013-05-25 01:56:00,77.1,66.7,30.04,ENE,68,1.7,4.0,70,0.00,,,0.00,WUHU216HW,2013-05-25 05:56:00,
2013-05-25 02:01:00,77.0,66.9,30.04,ENE,68,2.0,4.0,71,0.00,,,0.00,WUHU216HW,2013-05-25 06:01:00,
2013-05-25 02:06:00,76.8,66.7,30.04,ENE,68,3.3,4.2,71,0.00,,,0.00,WUHU216HW,2013-05-25 06:06:00,
2013-05-25 02:11:00,76.8,66.7,30.04,ENE,68,2.9,4.9,71,0.00,,,0.00,WUHU216HW,2013-05-25 06:11:00,
2013-05-25 02:16:00,76.8,66.7,30.04,ENE,68,1.1,4.9,71,0.00,,,0.00,WUHU216HW,2013-05-25 06:16:00,
2013-05-25 02:21:00,76.8,66.7,30.04,ENE,68,1.5,3.5,71,0.00,,,0.00,WUHU216HW,2013-05-25 06:21:00,
2013-05-25 02:26:00,76.6,66.5,30.04,ENE,68,0.0,5.1,71,0.00,,,0.00,WUHU216HW,2013-05-25 06:26:00,
2013-05-25 02:31:00,76.4,66.7,30.04,ENE,68,0.0,5.1,72,0.00,,,0.00,WUHU216HW,2013-05-25 06:31:00,
2013-05-25 02:36:00,76.2,66.5,30.04,ENE,68,0.0,1.7,72,0.00,,,0.00,WUHU216HW,2013-05-25 06:36:00,
2013-05-25 02:41:00,75.9,66.2,30.04,ENE,68,0.0,1.1,72,0.00,,,0.00,WUHU216HW,2013-05-25 06:41:00,
2013-05-25 02:46:00,75.9,66.2,30.04,ENE,68,0.0,0.0,72,0.00,,,0.00,WUHU216HW,2013-05-25 06:46:00,
2013-05-25 02:51:00,75.9,66.2,30.03,ENE,68,0.0,0.0,72,0.00,,,0.00,WUHU216HW,2013-05-25 06:51:00,
2013-05-25 02:56:00,75.9,66.6,30.03,ENE,68,0.0,0.0,73,0.00,,,0.00,WUHU216HW,2013-05-25 06:56:00,
2013-05-25 03:01:00,75.9,66.2,30.04,ENE,68,0.0,0.0,72,0.00,,,0.00,WUHU216HW,2013-05-25 07:01:00,
2013-05-25 03:06:00,75.7,66.4,30.04,ENE,68,0.0,0.0,73,0.00,,,0.00,WUHU216HW,2013-05-25 07:06:00,
2013-05-25 03:11:00,75.7,66.4,30.04,ENE,68,0.0,0.0,73,0.00,,,0.00,WUHU216HW,2013-05-25 07:11:00,
2013-05-25 03:16:00,75.5,66.6,30.04,ENE,68,0.0,0.0,74,0.00,,,0.00,WUHU216HW,2013-05-25 07:16:00,
2013-05-25 03:21:00,75.3,66.5,30.04,ENE,68,0.0,0.0,74,0.00,,,0.00,WUHU216HW,2013-05-25 07:21:00,
2013-05-25 03:26:00,75.3,66.5,30.04,ENE,68,0.0,0.0,74,0.00,,,0.00,WUHU216HW,2013-05-25 07:26:00,
2013-05-25 03:31:00,75.3,66.9,30.03,ENE,68,0.0,0.0,75,0.00,,,0.00,WUHU216HW,2013-05-25 07:31:00,
2013-05-25 03:36:00,75.3,66.9,30.04,ENE,68,0.8,4.4,75,0.00,,,0.00,WUHU216HW,2013-05-25 07:36:00,
2013-05-25 03:41:00,75.3,67.2,30.04,ENE,68,0.0,4.4,76,0.00,,,0.00,WUHU216HW,2013-05-25 07:41:00,
2013-05-25 03:46:00,75.0,67.1,30.03,ENE,68,0.6,2.4,76,0.00,,,0.00,WUHU216HW,2013-05-25 07:46:00,
2013-05-25 03:51:00,75.0,66.9,30.03,ENE,68,2.6,2.6,76,0.00,,,0.00,WUHU216HW,2013-05-25 07:51:00,
2013-05-25 03:56:00,75.0,67.3,30.04,ENE,68,2.6,2.6,77,0.00,,,0.00,WUHU216HW,2013-05-25 07:56:00,
2013-05-25 04:01:00,75.0,67.3,30.03,ENE,68,0.0,2.6,77,0.00,,,0.00,WUHU216HW,2013-05-25 08:01:00,
2013-05-25 04:06:00,75.0,67.3,30.03,ENE,68,0.0,0.4,77,0.00,,,0.00,WUHU216HW,2013-05-25 08:06:00,
2013-05-25 04:11:00,75.0,67.3,30.04,ENE,68,2.0,2.0,77,0.00,,,0.00,WUHU216HW,2013-05-25 08:11:00,
2013-05-25 04:16:00,75.0,67.3,30.04,ENE,68,0.0,2.0,77,0.00,,,0.00,WUHU216HW,2013-05-25 08:16:00,
2013-05-25 04:21:00,74.8,67.1,30.03,ENE,68,0.0,0.0,77,0.00,,,0.00,WUHU216HW,2013-05-25 08:21:00,
2013-05-25 04:26:00,74.8,67.1,30.04,ENE,68,0.0,0.6,77,0.00,,,0.00,WUHU216HW,2013-05-25 08:26:00,
2013-05-25 04:31:00,74.8,67.5,30.03,ENE,68,0.0,0.6,78,0.00,,,0.00,WUHU216HW,2013-05-25 08:31:00,
2013-05-25 04:36:00,74.8,67.5,30.03,ENE,68,0.0,0.0,78,0.00,,,0.00,WUHU216HW,2013-05-25 08:36:00,
2013-05-25 04:41:00,74.6,67.3,30.03,ENE,68,0.0,1.1,78,0.00,,,0.00,WUHU216HW,2013-05-25 08:41:00,
2013-05-25 04:46:00,74.4,67.2,30.03,ENE,68,0.0,3.3,78,0.00,,,0.00,WUHU216HW,2013-05-25 08:46:00,
2013-05-25 04:51:00,74.4,67.2,30.03,ENE,68,0.0,3.3,78,0.00,,,0.00,WUHU216HW,2013-05-25 08:51:00,
2013-05-25 04:56:00,74.3,67.4,30.03,ENE,68,0.0,2.4,79,0.00,,,0.00,WUHU216HW,2013-05-25 08:56:00,
2013-05-25 05:01:00,74.3,67.4,30.03,ENE,68,2.2,2.2,79,0.00,,,0.00,WUHU216HW,2013-05-25 09:01:00,
2013-05-25 05:06:00,74.3,67.4,30.03,ENE,68,1.3,2.2,79,0.00,,,0.00,WUHU216HW,2013-05-25 09:06:00,
2013-05-25 05:11:00,74.1,67.2,30.04,ENE,68,0.0,1.7,79,0.00,,,0.00,WUHU216HW,2013-05-25 09:11:00,
2013-05-25 05:16:00,74.1,67.6,30.04,ENE,68,1.3,1.3,80,0.00,,,0.00,WUHU216HW,2013-05-25 09:16:00,
2013-05-25 05:21:00,74.1,67.6,30.04,ENE,68,0.0,1.3,80,0.00,,,0.00,WUHU216HW,2013-05-25 09:21:00,
2013-05-25 05:26:00,74.1,67.6,30.04,ENE,68,0.0,4.9,80,0.00,,,0.00,WUHU216HW,2013-05-25 09:26:00,
2013-05-25 05:31:00,74.1,67.6,30.03,ENE,68,2.9,4.9,80,0.00,,,0.00,WUHU216HW,2013-05-25 09:31:00,
2013-05-25 05:36:00,73.9,67.4,30.04,ENE,68,0.6,3.1,80,0.00,,,0.00,WUHU216HW,2013-05-25 09:36:00,
2013-05-25 05:41:00,73.9,67.4,30.04,ENE,68,2.4,3.1,80,0.00,,,0.00,WUHU216HW,2013-05-25 09:41:00,
2013-05-25 05:46:00,73.9,67.8,30.04,East,90,2.6,3.1,81,0.00,,,0.00,WUHU216HW,2013-05-25 09:46:00,
2013-05-25 05:51:00,73.9,67.8,30.04,East,90,1.5,3.1,81,0.00,,,0.00,WUHU216HW,2013-05-25 09:51:00,
2013-05-25 05:56:00,73.9,67.8,30.04,East,90,0.0,2.9,81,0.00,,,0.00,WUHU216HW,2013-05-25 09:56:00,
2013-05-25 06:01:00,73.9,67.8,30.04,East,90,1.1,1.3,81,0.00,,,0.00,WUHU216HW,2013-05-25 10:01:00,
2013-05-25 06:06:00,73.9,67.8,30.04,East,90,2.0,2.6,81,0.00,,,0.00,WUHU216HW,2013-05-25 10:06:00,
2013-05-25 06:11:00,73.9,67.8,30.05,East,90,3.8,3.8,81,0.00,,,0.00,WUHU216HW,2013-05-25 10:11:00,
2013-05-25 06:16:00,73.9,67.8,30.05,East,90,0.0,3.8,81,0.00,,,0.00,WUHU216HW,2013-05-25 10:16:00,
2013-05-25 06:21:00,73.5,67.4,30.05,East,90,2.4,2.9,81,0.00,,,0.00,WUHU216HW,2013-05-25 10:21:00,
2013-05-25 06:26:00,73.0,67.2,30.05,East,90,0.8,2.9,82,0.00,,,0.00,WUHU216HW,2013-05-25 10:26:00,
2013-05-25 06:31:00,72.8,67.4,30.06,East,90,2.2,2.2,83,0.00,,,0.00,WUHU216HW,2013-05-25 10:31:00,
2013-05-25 06:36:00,73.0,67.5,30.06,East,90,0.0,3.1,83,0.00,,,0.00,WUHU216HW,2013-05-25 10:36:00,
2013-05-25 06:41:00,73.0,67.5,30.06,East,90,0.0,3.1,83,0.00,,,0.00,WUHU216HW,2013-05-25 10:41:00,
2013-05-25 06:46:00,73.0,67.5,30.06,East,90,0.0,2.6,83,0.00,,,0.00,WUHU216HW,2013-05-25 10:46:00,
2013-05-25 06:51:00,73.0,67.5,30.07,East,90,0.0,2.6,83,0.00,,,0.00,WUHU216HW,2013-05-25 10:51:00,
2013-05-25 06:56:00,73.0,67.5,30.07,East,90,0.0,2.9,83,0.00,,,0.00,WUHU216HW,2013-05-25 10:56:00,
2013-05-25 07:01:00,73.0,67.5,30.07,East,90,0.4,3.5,83,0.00,,,0.00,WUHU216HW,2013-05-25 11:01:00,
2013-05-25 07:06:00,73.2,67.7,30.07,East,90,2.6,3.5,83,0.00,,,0.00,WUHU216HW,2013-05-25 11:06:00,
2013-05-25 07:11:00,73.2,68.1,30.08,East,90,1.7,2.6,84,0.00,,,0.00,WUHU216HW,2013-05-25 11:11:00,
2013-05-25 07:16:00,73.2,68.1,30.08,East,90,0.0,1.7,84,0.00,,,0.00,WUHU216HW,2013-05-25 11:16:00,
2013-05-25 07:21:00,73.4,68.2,30.08,ENE,68,0.4,3.1,84,0.00,,,0.00,WUHU216HW,2013-05-25 11:21:00,
2013-05-25 07:26:00,73.5,68.4,30.08,ENE,68,0.0,3.1,84,0.00,,,0.00,WUHU216HW,2013-05-25 11:26:00,
2013-05-25 07:31:00,73.7,68.6,30.08,ENE,68,0.0,2.0,84,0.00,,,0.00,WUHU216HW,2013-05-25 11:31:00,
2013-05-25 07:36:00,73.7,68.6,30.08,ENE,68,2.4,3.1,84,0.00,,,0.00,WUHU216HW,2013-05-25 11:36:00,
2013-05-25 07:41:00,73.9,68.8,30.08,ENE,68,0.0,3.3,84,0.00,,,0.00,WUHU216HW,2013-05-25 11:41:00,
2013-05-25 07:46:00,74.1,69.0,30.08,ENE,68,1.1,4.9,84,0.00,,,0.00,WUHU216HW,2013-05-25 11:46:00,
2013-05-25 07:51:00,74.1,68.6,30.09,ENE,68,0.0,6.2,83,0.00,,,0.00,WUHU216HW,2013-05-25 11:51:00,
2013-05-25 07:56:00,74.3,68.8,30.09,ENE,68,7.8,7.8,83,0.00,,,0.00,WUHU216HW,2013-05-25 11:56:00,
2013-05-25 08:01:00,74.4,69.0,30.09,NE,45,5.5,7.8,83,0.00,,,0.00,WUHU216HW,2013-05-25 12:01:00,
2013-05-25 08:06:00,74.8,69.0,30.09,East,90,3.5,7.8,82,0.00,,,0.00,WUHU216HW,2013-05-25 12:06:00,
2013-05-25 08:11:00,75.0,69.2,30.09,ENE,68,4.2,8.2,82,0.00,,,0.00,WUHU216HW,2013-05-25 12:11:00,
2013-05-25 08:16:00,75.0,68.8,30.09,ENE,68,6.4,8.2,81,0.00,,,0.00,WUHU216HW,2013-05-25 12:16:00,
2013-05-25 08:21:00,75.3,69.2,30.10,NE,45,2.9,8.0,81,0.00,,,0.00,WUHU216HW,2013-05-25 12:21:00,
2013-05-25 08:26:00,75.3,69.0,30.09,ENE,68,4.2,9.6,81,0.00,,,0.00,WUHU216HW,2013-05-25 12:26:00,
2013-05-25 08:31:00,75.7,69.2,30.10,NE,45,3.5,9.6,80,0.00,,,0.00,WUHU216HW,2013-05-25 12:31:00,
2013-05-25 08:36:00,75.9,68.9,30.10,NE,45,3.5,8.5,79,0.00,,,0.00,WUHU216HW,2013-05-25 12:36:00,
2013-05-25 08:41:00,76.2,69.2,30.10,NE,45,1.7,8.5,79,0.00,,,0.00,WUHU216HW,2013-05-25 12:41:00,
2013-05-25 08:46:00,76.6,69.2,30.10,NE,45,5.8,6.2,78,0.00,,,0.00,WUHU216HW,2013-05-25 12:46:00,
2013-05-25 08:51:00,76.6,69.0,30.11,NE,45,6.2,7.1,77,0.00,,,0.00,WUHU216HW,2013-05-25 12:51:00,
2013-05-25 08:56:00,76.8,69.0,30.11,ENE,68,7.6,7.6,77,0.00,,,0.00,WUHU216HW,2013-05-25 12:56:00,
2013-05-25 09:01:00,77.1,68.9,30.11,NE,45,3.3,8.0,76,0.00,,,0.00,WUHU216HW,2013-05-25 13:01:00,
2013-05-25 09:06:00,77.5,68.9,30.11,NE,45,10.2,10.2,75,0.00,,,0.00,WUHU216HW,2013-05-25 13:06:00,
2013-05-25 09:11:00,77.7,68.7,30.11,NE,45,7.3,10.2,74,0.00,,,0.00,WUHU216HW,2013-05-25 13:11:00,
2013-05-25 09:16:00,77.9,68.6,30.11,NNE,23,6.2,8.5,73,0.00,,,0.00,WUHU216HW,2013-05-25 13:16:00,
2013-05-25 09:21:00,78.0,68.3,30.12,East,90,6.2,9.1,72,0.00,,,0.00,WUHU216HW,2013-05-25 13:21:00,
2013-05-25 09:26:00,78.4,68.2,30.12,SE,135,5.1,9.1,71,0.00,,,0.00,WUHU216HW,2013-05-25 13:26:00,
2013-05-25 09:31:00,78.6,68.0,30.12,ENE,68,4.2,7.3,70,0.00,,,0.00,WUHU216HW,2013-05-25 13:31:00,
2013-05-25 09:36:00,78.9,67.9,30.12,NNE,23,0.6,8.9,69,0.00,,,0.00,WUHU216HW,2013-05-25 13:36:00,
2013-05-25 09:41:00,79.1,67.6,30.13,NE,45,4.6,8.9,68,0.00,,,0.00,WUHU216HW,2013-05-25 13:41:00,
2013-05-25 09:46:00,79.5,67.5,30.13,ESE,113,4.0,7.1,67,0.00,,,0.00,WUHU216HW,2013-05-25 13:46:00,
2013-05-25 09:51:00,79.7,67.3,30.13,ENE,68,3.5,10.0,66,0.00,,,0.00,WUHU216HW,2013-05-25 13:51:00,
2013-05-25 09:56:00,80.0,67.0,30.12,SE,135,2.4,10.0,65,0.00,,,0.00,WUHU216HW,2013-05-25 13:56:00,
2013-05-25 10:01:00,80.4,67.1,30.13,NE,45,6.7,9.8,64,0.00,,,0.00,WUHU216HW,2013-05-25 14:01:00,
2013-05-25 10:06:00,80.4,66.6,30.13,East,90,1.5,9.8,63,0.00,,,0.00,WUHU216HW,2013-05-25 14:06:00,
2013-05-25 10:11:00,80.7,66.9,30.13,ENE,68,7.1,9.8,63,0.00,,,0.00,WUHU216HW,2013-05-25 14:11:00,
2013-05-25 10:16:00,81.1,66.8,30.13,ENE,68,6.4,9.1,62,0.00,,,0.00,WUHU216HW,2013-05-25 14:16:00,
2013-05-25 10:21:00,81.3,67.0,30.13,ENE,68,9.8,9.8,62,0.00,,,0.00,WUHU216HW,2013-05-25 14:21:00,
2013-05-25 10:26:00,81.5,66.7,30.13,NNE,23,8.7,10.2,61,0.00,,,0.00,WUHU216HW,2013-05-25 14:26:00,
2013-05-25 10:31:00,81.6,66.9,30.14,ENE,68,3.5,10.2,61,0.00,,,0.00,WUHU216HW,2013-05-25 14:31:00,
2013-05-25 10:36:00,82.0,67.2,30.14,ENE,68,2.0,9.6,61,0.00,,,0.00,WUHU216HW,2013-05-25 14:36:00,
2013-05-25 10:41:00,82.2,66.9,30.14,NE,45,6.9,9.6,60,0.00,,,0.00,WUHU216HW,2013-05-25 14:41:00,
2013-05-25 10:46:00,82.5,67.2,30.14,NE,45,7.8,7.8,60,0.00,,,0.00,WUHU216HW,2013-05-25 14:46:00,
2013-05-25 10:51:00,82.7,67.9,30.14,ENE,68,5.5,7.8,61,0.00,,,0.00,WUHU216HW,2013-05-25 14:51:00,
2013-05-25 10:56:00,82.9,67.6,30.14,NE,45,8.2,8.2,60,0.00,,,0.00,WUHU216HW,2013-05-25 14:56:00,
2013-05-25 11:01:00,83.3,68.0,30.14,East,90,5.1,8.2,60,0.00,,,0.00,WUHU216HW,2013-05-25 15:01:00,
2013-05-25 11:06:00,83.4,67.6,30.14,NE,45,7.6,9.1,59,0.00,,,0.00,WUHU216HW,2013-05-25 15:06:00,
2013-05-25 11:11:00,83.8,68.0,30.14,NE,45,4.2,9.1,59,0.00,,,0.00,WUHU216HW,2013-05-25 15:11:00,
2013-05-25 11:16:00,84.0,67.6,30.14,ENE,68,9.6,10.0,58,0.00,,,0.00,WUHU216HW,2013-05-25 15:16:00,
2013-05-25 11:21:00,84.3,68.0,30.14,NE,45,6.0,10.0,58,0.00,,,0.00,WUHU216HW,2013-05-25 15:21:00,
2013-05-25 11:26:00,84.5,68.1,30.14,NE,45,6.0,9.6,57,0.00,,,0.00,WUHU216HW,2013-05-25 15:26:00,
2013-05-25 11:31:00,84.7,67.8,30.15,ENE,68,6.0,6.7,57,0.00,,,0.00,WUHU216HW,2013-05-25 15:31:00,
2013-05-25 11:36:00,84.9,67.9,30.15,ENE,68,5.5,6.7,57,0.00,,,0.00,WUHU216HW,2013-05-25 15:36:00,
2013-05-25 11:41:00,85.2,67.6,30.15,ENE,68,5.8,8.9,56,0.00,,,0.00,WUHU216HW,2013-05-25 15:41:00,
2013-05-25 11:46:00,85.2,67.7,30.14,NNE,23,0.0,8.9,56,0.00,,,0.00,WUHU216HW,2013-05-25 15:46:00,
2013-05-25 11:51:00,85.2,66.7,30.14,NNE,23,7.1,8.5,54,0.00,,,0.00,WUHU216HW,2013-05-25 15:51:00,
2013-05-25 11:56:00,85.4,66.9,30.15,NNE,23,6.7,11.1,54,0.00,,,0.00,WUHU216HW,2013-05-25 15:56:00,
2013-05-25 12:01:00,85.6,65.4,30.14,NNE,23,0.4,11.1,51,0.00,,,0.00,WUHU216HW,2013-05-25 16:01:00,
2013-05-25 12:06:00,85.6,67.0,30.15,ENE,68,5.5,9.3,54,0.00,,,0.00,WUHU216HW,2013-05-25 16:06:00,
2013-05-25 12:11:00,85.8,67.2,30.15,NE,45,5.8,8.9,54,0.00,,,0.00,WUHU216HW,2013-05-25 16:11:00,
2013-05-25 12:16:00,86.3,67.7,30.14,NE,45,3.5,8.9,54,0.00,,,0.00,WUHU216HW,2013-05-25 16:16:00,
2013-05-25 12:21:00,86.3,67.7,30.15,NNE,23,6.7,10.7,54,0.00,,,0.00,WUHU216HW,2013-05-25 16:21:00,
2013-05-25 12:26:00,86.5,67.8,30.15,ENE,68,5.1,10.7,54,0.00,,,0.00,WUHU216HW,2013-05-25 16:26:00,
2013-05-25 12:31:00,86.7,68.0,30.15,ENE,68,4.4,7.3,54,0.00,,,0.00,WUHU216HW,2013-05-25 16:31:00,
2013-05-25 12:36:00,87.8,68.0,30.14,SSE,158,3.1,6.9,52,0.00,,,0.00,WUHU216HW,2013-05-25 16:36:00,
2013-05-25 12:41:00,88.3,68.4,30.14,East,90,0.0,12.3,52,0.00,,,0.00,WUHU216HW,2013-05-25 16:41:00,
2013-05-25 12:46:00,88.5,68.6,30.14,NE,45,8.5,15.6,52,0.00,,,0.00,WUHU216HW,2013-05-25 16:46:00,
2013-05-25 12:51:00,88.7,68.6,30.14,NNE,23,2.9,15.6,52,0.00,,,0.00,WUHU216HW,2013-05-25 16:51:00,
2013-05-25 12:56:00,88.7,68.8,30.14,NNE,23,5.1,7.1,52,0.00,,,0.00,WUHU216HW,2013-05-25 16:56:00,
2013-05-25 13:01:00,88.7,68.8,30.14,ENE,68,2.9,6.0,52,0.00,,,0.00,WUHU216HW,2013-05-25 17:01:00,
2013-05-25 13:06:00,88.8,68.9,30.14,ENE,68,4.9,6.7,52,0.00,,,0.00,WUHU216HW,2013-05-25 17:06:00,
2013-05-25 13:11:00,89.2,69.2,30.13,NE,45,3.1,6.7,52,0.00,,,0.00,WUHU216HW,2013-05-25 17:11:00,
2013-05-25 13:16:00,89.4,68.9,30.13,SSW,203,3.5,7.8,51,0.00,,,0.00,WUHU216HW,2013-05-25 17:16:00,
2013-05-25 13:21:00,89.9,68.8,30.13,NE,45,5.5,7.8,50,0.00,,,0.00,WUHU216HW,2013-05-25 17:21:00,
2013-05-25 13:26:00,89.9,68.8,30.13,NE,45,3.8,6.0,50,0.00,,,0.00,WUHU216HW,2013-05-25 17:26:00,
2013-05-25 13:31:00,89.7,68.0,30.13,NNE,23,3.3,6.0,49,0.00,,,0.00,WUHU216HW,2013-05-25 17:31:00,
2013-05-25 13:36:00,89.6,68.5,30.13,ENE,68,5.5,9.3,50,0.00,,,0.00,WUHU216HW,2013-05-25 17:36:00,
2013-05-25 13:41:00,89.7,68.0,30.13,ENE,68,2.4,10.0,49,0.00,,,0.00,WUHU216HW,2013-05-25 17:41:00,
2013-05-25 13:46:00,89.9,68.2,30.13,NNE,23,5.3,10.0,49,0.00,,,0.00,WUHU216HW,2013-05-25 17:46:00,
2013-05-25 13:51:00,89.9,68.8,30.12,East,90,7.6,7.8,50,0.00,,,0.00,WUHU216HW,2013-05-25 17:51:00,
2013-05-25 13:56:00,90.3,69.1,30.12,ENE,68,6.0,7.8,50,0.00,,,0.00,WUHU216HW,2013-05-25 17:56:00,
2013-05-25 14:01:00,90.1,67.7,30.12,NE,45,6.9,6.9,48,0.00,,,0.00,WUHU216HW,2013-05-25 18:01:00,
2013-05-25 14:06:00,89.9,68.2,30.12,ENE,68,0.0,6.9,49,0.00,,,0.00,WUHU216HW,2013-05-25 18:06:00,
2013-05-25 14:11:00,89.9,69.4,30.12,ESE,113,1.3,6.4,51,0.00,,,0.00,WUHU216HW,2013-05-25 18:11:00,
2013-05-25 14:16:00,90.3,68.5,30.12,NNE,23,6.7,6.7,49,0.00,,,0.00,WUHU216HW,2013-05-25 18:16:00,
2013-05-25 14:21:00,90.3,69.1,30.12,NE,45,6.4,7.6,50,0.00,,,0.00,WUHU216HW,2013-05-25 18:21:00,
2013-05-25 14:26:00,91.0,70.3,30.12,East,90,6.0,8.2,51,0.00,,,0.00,WUHU216HW,2013-05-25 18:26:00,
2013-05-25 14:32:00,91.5,70.8,30.12,ENE,68,4.0,8.2,51,0.00,,,0.00,WUHU216HW,2013-05-25 18:32:00,
2013-05-25 14:37:00,91.9,69.9,30.12,East,90,6.2,7.8,49,0.00,,,0.00,WUHU216HW,2013-05-25 18:37:00,
2013-05-25 14:42:00,92.1,70.1,30.11,NNE,23,2.9,7.8,49,0.00,,,0.00,WUHU216HW,2013-05-25 18:42:00,
2013-05-25 14:47:00,91.9,69.3,30.11,SSE,158,4.0,9.3,48,0.00,,,0.00,WUHU216HW,2013-05-25 18:47:00,
2013-05-25 14:52:00,92.3,69.6,30.11,WSW,248,0.8,9.3,48,0.00,,,0.00,WUHU216HW,2013-05-25 18:52:00,
2013-05-25 14:57:00,92.1,68.2,30.11,ENE,68,4.4,7.6,46,0.00,,,0.00,WUHU216HW,2013-05-25 18:57:00,
2013-05-25 15:02:00,91.7,68.5,30.11,NNE,23,1.3,8.0,47,0.00,,,0.00,WUHU216HW,2013-05-25 19:02:00,
2013-05-25 15:07:00,91.9,68.7,30.10,East,90,1.7,8.0,47,0.00,,,0.00,WUHU216HW,2013-05-25 19:07:00,
2013-05-25 15:12:00,92.4,69.1,30.10,ENE,68,5.1,10.0,47,0.00,,,0.00,WUHU216HW,2013-05-25 19:12:00,
2013-05-25 15:17:00,92.8,69.5,30.10,East,90,5.1,10.0,47,0.00,,,0.00,WUHU216HW,2013-05-25 19:17:00,
2013-05-25 15:22:00,93.0,69.0,30.10,NE,45,5.5,6.9,46,0.00,,,0.00,WUHU216HW,2013-05-25 19:22:00,
2013-05-25 15:27:00,93.3,70.6,30.10,NE,45,5.8,6.7,48,0.00,,,0.00,WUHU216HW,2013-05-25 19:27:00,
2013-05-25 15:32:00,93.2,69.1,30.09,East,90,4.2,8.7,45,0.00,,,0.00,WUHU216HW,2013-05-25 19:32:00,
2013-05-25 15:37:00,92.8,68.2,30.09,ENE,68,7.6,8.7,45,0.00,,,0.00,WUHU216HW,2013-05-25 19:37:00,
2013-05-25 15:42:00,92.1,68.2,30.09,NE,45,4.4,8.2,46,0.00,,,0.00,WUHU216HW,2013-05-25 19:42:00,
2013-05-25 15:47:00,92.1,68.8,30.09,ESE,113,4.9,7.1,47,0.00,,,0.00,WUHU216HW,2013-05-25 19:47:00,
2013-05-25 15:52:00,92.1,67.5,30.09,ENE,68,6.0,6.7,46,0.00,,,0.00,WUHU216HW,2013-05-25 19:52:00,
2013-05-25 15:57:00,91.7,67.8,30.09,NNE,23,4.2,9.3,46,0.00,,,0.00,WUHU216HW,2013-05-25 19:57:00,
2013-05-25 16:02:00,91.7,68.5,30.09,NE,45,7.1,9.3,47,0.00,,,0.00,WUHU216HW,2013-05-25 20:02:00,
2013-05-25 16:07:00,92.1,68.8,30.09,NE,45,4.4,8.7,47,0.00,,,0.00,WUHU216HW,2013-05-25 20:07:00,
2013-05-25 16:12:00,92.4,69.1,30.09,NE,45,3.5,9.6,47,0.00,,,0.00,WUHU216HW,2013-05-25 20:12:00,
2013-05-25 16:17:00,92.8,69.5,30.09,NE,45,11.8,11.8,47,0.00,,,0.00,WUHU216HW,2013-05-25 20:17:00,
2013-05-25 16:22:00,92.4,69.1,30.09,East,90,8.5,11.8,47,0.00,,,0.00,WUHU216HW,2013-05-25 20:22:00,
2013-05-25 16:27:00,92.8,71.4,30.08,NE,45,9.1,10.2,50,0.00,,,0.00,WUHU216HW,2013-05-25 20:27:00,
2013-05-25 16:32:00,93.0,69.6,30.09,ENE,68,11.8,11.8,48,0.00,,,0.00,WUHU216HW,2013-05-25 20:32:00,
2013-05-25 16:37:00,92.3,69.6,30.09,ENE,68,2.9,11.8,48,0.00,,,0.00,WUHU216HW,2013-05-25 20:37:00,
2013-05-25 16:42:00,91.7,69.1,30.09,NE,45,6.0,9.3,48,0.00,,,0.00,WUHU216HW,2013-05-25 20:42:00,
2013-05-25 16:47:00,91.2,69.3,30.08,ENE,68,8.9,9.1,49,0.00,,,0.00,WUHU216HW,2013-05-25 20:47:00,
2013-05-25 16:52:00,91.0,70.3,30.08,NE,45,2.2,9.1,51,0.00,,,0.00,WUHU216HW,2013-05-25 20:52:00,
2013-05-25 16:57:00,91.5,70.7,30.09,North,0,6.9,8.7,51,0.00,,,0.00,WUHU216HW,2013-05-25 20:57:00,
2013-05-25 17:02:00,91.5,70.3,30.08,NE,45,5.1,11.8,50,0.00,,,0.00,WUHU216HW,2013-05-25 21:02:00,
2013-05-25 17:07:00,91.2,69.3,30.09,SSE,158,1.1,11.8,49,0.00,,,0.00,WUHU216HW,2013-05-25 21:07:00,
2013-05-25 17:12:00,91.2,70.5,30.09,NNE,23,6.7,11.4,51,0.00,,,0.00,WUHU216HW,2013-05-25 21:12:00,
2013-05-25 17:17:00,91.9,70.6,30.08,ENE,68,9.1,11.4,50,0.00,,,0.00,WUHU216HW,2013-05-25 21:17:00,
2013-05-25 17:22:00,92.3,72.0,30.08,ENE,68,7.3,9.1,52,0.00,,,0.00,WUHU216HW,2013-05-25 21:22:00,
2013-05-25 17:27:00,92.4,71.1,30.08,East,90,8.7,12.9,50,0.00,,,0.00,WUHU216HW,2013-05-25 21:27:00,
2013-05-25 17:32:00,92.1,69.5,30.08,East,90,7.6,12.9,48,0.00,,,0.00,WUHU216HW,2013-05-25 21:32:00,
2013-05-25 17:37:00,92.1,70.3,30.08,NE,45,5.3,9.6,49,0.00,,,0.00,WUHU216HW,2013-05-25 21:37:00,
2013-05-25 17:42:00,92.3,69.6,30.08,East,90,9.3,9.6,49,0.00,,,0.00,WUHU216HW,2013-05-25 21:42:00,
2013-05-25 17:47:00,92.4,70.4,30.08,NE,45,6.2,11.1,49,0.00,,,0.00,WUHU216HW,2013-05-25 21:47:00,
2013-05-25 17:52:00,92.8,70.1,30.08,ENE,68,6.9,11.1,48,0.00,,,0.00,WUHU216HW,2013-05-25 21:52:00,
2013-05-25 17:57:00,93.2,70.4,30.08,NE,45,8.9,11.4,48,0.00,,,0.00,WUHU216HW,2013-05-25 21:57:00,
2013-05-25 18:02:00,93.7,70.3,30.09,NE,45,9.3,11.4,47,0.00,,,0.00,WUHU216HW,2013-05-25 22:02:00,
2013-05-25 18:07:00,93.9,71.1,30.08,NE,45,11.6,11.6,48,0.00,,,0.00,WUHU216HW,2013-05-25 22:07:00,
2013-05-25 18:12:00,93.7,70.3,30.08,NE,45,10.0,11.8,47,0.00,,,0.00,WUHU216HW,2013-05-25 22:12:00,
2013-05-25 18:17:00,93.9,70.5,30.08,ENE,68,9.3,11.8,47,0.00,,,0.00,WUHU216HW,2013-05-25 22:17:00,
2013-05-25 18:22:00,93.9,70.5,30.08,ENE,68,4.4,10.7,47,0.00,,,0.00,WUHU216HW,2013-05-25 22:22:00,
2013-05-25 18:27:00,94.1,70.7,30.08,ENE,68,9.1,10.2,47,0.00,,,0.00,WUHU216HW,2013-05-25 22:27:00,
2013-05-25 18:32:00,94.1,70.7,30.08,NE,45,6.4,10.2,47,0.00,,,0.00,WUHU216HW,2013-05-25 22:32:00,
2013-05-25 18:37:00,94.1,70.7,30.08,NE,45,7.8,9.3,46,0.00,,,0.00,WUHU216HW,2013-05-25 22:37:00,
2013-05-25 18:42:00,93.9,70.5,30.09,ENE,68,0.4,8.5,47,0.00,,,0.00,WUHU216HW,2013-05-25 22:42:00,
2013-05-25 18:47:00,93.9,69.8,30.08,East,90,4.9,10.7,46,0.00,,,0.00,WUHU216HW,2013-05-25 22:47:00,
2013-05-25 18:52:00,93.3,69.9,30.09,ENE,68,6.9,10.7,47,0.00,,,0.00,WUHU216HW,2013-05-25 22:52:00,
2013-05-25 18:57:00,92.6,69.3,30.09,ENE,68,6.7,9.3,47,0.00,,,0.00,WUHU216HW,2013-05-25 22:57:00,
2013-05-25 19:02:00,91.9,68.7,30.09,ENE,68,3.3,9.3,47,0.00,,,0.00,WUHU216HW,2013-05-25 23:02:00,
2013-05-25 19:07:00,91.9,68.7,30.09,NE,45,8.5,9.6,47,0.00,,,0.00,WUHU216HW,2013-05-25 23:07:00,
2013-05-25 19:12:00,91.7,68.5,30.09,NE,45,5.8,9.6,47,0.00,,,0.00,WUHU216HW,2013-05-25 23:12:00,
2013-05-25 19:17:00,91.5,69.0,30.09,ENE,68,5.3,8.5,48,0.00,,,0.00,WUHU216HW,2013-05-25 23:17:00,
2013-05-25 19:22:00,91.2,68.7,30.09,East,90,7.1,12.7,48,0.00,,,0.00,WUHU216HW,2013-05-25 23:22:00,
2013-05-25 19:27:00,91.0,68.5,30.09,ENE,68,6.2,12.7,48,0.00,,,0.00,WUHU216HW,2013-05-25 23:27:00,
2013-05-25 19:32:00,90.5,68.0,30.09,ENE,68,7.6,11.1,48,0.00,,,0.00,WUHU216HW,2013-05-25 23:32:00,
2013-05-25 19:37:00,90.1,67.7,30.10,NE,45,4.9,11.1,48,0.00,,,0.00,WUHU216HW,2013-05-25 23:37:00,
2013-05-25 19:42:00,89.4,67.7,30.10,ENE,68,4.6,6.4,49,0.00,,,0.00,WUHU216HW,2013-05-25 23:42:00,
2013-05-25 19:47:00,88.8,67.2,30.10,ENE,68,7.6,10.0,49,0.00,,,0.00,WUHU216HW,2013-05-25 23:47:00,
2013-05-25 19:52:00,87.9,67.0,30.11,East,90,11.1,11.1,50,0.00,,,0.00,WUHU216HW,2013-05-25 23:52:00,
2013-05-25 19:57:00,87.0,66.7,30.11,NE,45,5.5,11.1,51,0.00,,,0.00,WUHU216HW,2013-05-25 23:57:00,
2013-05-25 20:02:00,86.3,66.6,30.11,ENE,68,5.1,7.8,52,0.00,,,0.00,WUHU216HW,2013-05-26 00:02:00,
2013-05-25 20:07:00,85.6,66.5,30.11,NE,45,4.4,7.8,53,0.00,,,0.00,WUHU216HW,2013-05-26 00:07:00,
2013-05-25 20:12:00,84.7,66.2,30.11,NE,45,6.0,7.8,54,0.00,,,0.00,WUHU216HW,2013-05-26 00:12:00,
2013-05-25 20:17:00,84.0,65.5,30.11,NE,45,6.7,6.9,54,0.00,,,0.00,WUHU216HW,2013-05-26 00:17:00,
2013-05-25 20:22:00,83.4,65.7,30.11,ENE,68,6.0,12.0,55,0.00,,,0.00,WUHU216HW,2013-05-26 00:22:00,
2013-05-25 20:27:00,83.1,65.7,30.11,NE,45,6.4,12.0,56,0.00,,,0.00,WUHU216HW,2013-05-26 00:27:00,
2013-05-25 20:32:00,82.9,65.5,30.11,ENE,68,6.0,7.1,56,0.00,,,0.00,WUHU216HW,2013-05-26 00:32:00,
2013-05-25 20:37:00,82.4,65.5,30.12,ENE,68,6.9,8.0,57,0.00,,,0.00,WUHU216HW,2013-05-26 00:37:00,
2013-05-25 20:42:00,82.2,65.3,30.12,ENE,68,4.6,8.0,57,0.00,,,0.00,WUHU216HW,2013-05-26 00:42:00,
2013-05-25 20:47:00,82.0,65.7,30.12,ENE,68,7.1,8.0,58,0.00,,,0.00,WUHU216HW,2013-05-26 00:47:00,
2013-05-25 20:52:00,81.6,65.4,30.12,ENE,68,6.2,8.0,58,0.00,,,0.00,WUHU216HW,2013-05-26 00:52:00,
2013-05-25 20:57:00,81.3,65.0,30.12,ENE,68,6.0,6.4,58,0.00,,,0.00,WUHU216HW,2013-05-26 00:57:00,
2013-05-25 21:02:00,80.9,65.2,30.13,ENE,68,4.2,6.2,59,0.00,,,0.00,WUHU216HW,2013-05-26 01:02:00,
2013-05-25 21:07:00,80.4,64.7,30.13,NE,45,2.0,5.8,59,0.00,,,0.00,WUHU216HW,2013-05-26 01:07:00,
2013-05-25 21:12:00,80.2,65.1,30.12,ENE,68,3.8,5.8,60,0.00,,,0.00,WUHU216HW,2013-05-26 01:12:00,
2013-05-25 21:17:00,79.8,64.8,30.12,ENE,68,2.0,10.2,60,0.00,,,0.00,WUHU216HW,2013-05-26 01:17:00,
2013-05-25 21:22:00,79.7,65.1,30.12,ENE,68,4.0,10.2,61,0.00,,,0.00,WUHU216HW,2013-05-26 01:22:00,
2013-05-25 21:27:00,79.5,64.9,30.12,NE,45,5.1,6.2,61,0.00,,,0.00,WUHU216HW,2013-05-26 01:27:00,
2013-05-25 21:32:00,79.3,64.7,30.13,ENE,68,6.4,6.4,61,0.00,,,0.00,WUHU216HW,2013-05-26 01:32:00,
2013-05-25 21:37:00,78.9,64.8,30.13,ENE,68,4.0,6.4,62,0.00,,,0.00,WUHU216HW,2013-05-26 01:37:00,
2013-05-25 21:42:00,78.9,64.8,30.13,ENE,68,4.0,6.4,62,0.00,,,0.00,WUHU216HW,2013-05-26 01:42:00,
2013-05-25 21:47:00,78.6,64.5,30.14,ENE,68,4.2,6.4,62,0.00,,,0.00,WUHU216HW,2013-05-26 01:47:00,
2013-05-25 21:52:00,78.6,64.9,30.14,NE,45,1.7,6.4,63,0.00,,,0.00,WUHU216HW,2013-05-26 01:52:00,
2013-05-25 21:57:00,78.4,64.7,30.14,ENE,68,3.5,5.5,63,0.00,,,0.00,WUHU216HW,2013-05-26 01:57:00,
2013-05-25 22:02:00,78.2,65.0,30.14,ENE,68,0.6,11.1,64,0.00,,,0.00,WUHU216HW,2013-05-26 02:02:00,
2013-05-25 22:07:00,78.0,64.8,30.14,ENE,68,2.0,11.1,64,0.00,,,0.00,WUHU216HW,2013-05-26 02:07:00,
2013-05-25 22:12:00,78.0,64.8,30.15,ENE,68,4.0,6.9,64,0.00,,,0.00,WUHU216HW,2013-05-26 02:12:00,
2013-05-25 22:17:00,77.9,64.7,30.15,ENE,68,2.0,6.9,64,0.00,,,0.00,WUHU216HW,2013-05-26 02:17:00,
2013-05-25 22:22:00,77.7,64.5,30.15,ENE,68,1.3,6.2,64,0.00,,,0.00,WUHU216HW,2013-05-26 02:22:00,
2013-05-25 22:27:00,77.7,64.5,30.15,NE,45,5.3,6.2,64,0.00,,,0.00,WUHU216HW,2013-05-26 02:27:00,
2013-05-25 22:32:00,77.5,64.8,30.16,ENE,68,2.6,6.2,65,0.00,,,0.00,WUHU216HW,2013-05-26 02:32:00,
2013-05-25 22:37:00,77.5,64.8,30.16,ENE,68,2.0,5.8,65,0.00,,,0.00,WUHU216HW,2013-05-26 02:37:00,
2013-05-25 22:42:00,77.5,64.8,30.16,ENE,68,2.6,4.0,65,0.00,,,0.00,WUHU216HW,2013-05-26 02:42:00,
2013-05-25 22:47:00,77.5,64.8,30.16,ENE,68,0.0,6.4,65,0.00,,,0.00,WUHU216HW,2013-05-26 02:47:00,
2013-05-25 22:52:00,77.5,64.8,30.16,ENE,68,5.1,6.4,65,0.00,,,0.00,WUHU216HW,2013-05-26 02:52:00,
2013-05-25 22:57:00,77.3,64.6,30.16,ENE,68,4.4,5.8,65,0.00,,,0.00,WUHU216HW,2013-05-26 02:57:00,
2013-05-25 23:02:00,77.1,64.9,30.16,East,90,4.4,5.5,66,0.00,,,0.00,WUHU216HW,2013-05-26 03:02:00,
2013-05-25 23:07:00,77.1,64.9,30.16,ENE,68,2.0,8.2,66,0.00,,,0.00,WUHU216HW,2013-05-26 03:07:00,
2013-05-25 23:12:00,77.0,64.7,30.16,ENE,68,4.0,8.2,66,0.00,,,0.00,WUHU216HW,2013-05-26 03:12:00,
2013-05-25 23:17:00,76.8,64.5,30.16,ENE,68,3.8,6.0,66,0.00,,,0.00,WUHU216HW,2013-05-26 03:17:00,
2013-05-25 23:22:00,76.8,64.5,30.16,ENE,68,3.5,5.3,66,0.00,,,0.00,WUHU216HW,2013-05-26 03:22:00,
2013-05-25 23:27:00,76.8,65.0,30.16,ENE,68,5.3,5.3,67,0.00,,,0.00,WUHU216HW,2013-05-26 03:27:00,
2013-05-25 23:32:00,76.6,64.8,30.16,ENE,68,5.1,5.3,67,0.00,,,0.00,WUHU216HW,2013-05-26 03:32:00,
2013-05-25 23:37:00,76.4,64.6,30.16,East,90,0.0,5.8,67,0.00,,,0.00,WUHU216HW,2013-05-26 03:37:00,
2013-05-25 23:42:00,76.2,64.5,30.16,East,90,2.6,5.8,67,0.00,,,0.00,WUHU216HW,2013-05-26 03:42:00,
2013-05-25 23:47:00,75.9,64.5,30.16,East,90,2.0,5.5,68,0.00,,,0.00,WUHU216HW,2013-05-26 03:47:00,
2013-05-25 23:52:00,75.9,64.5,30.16,ENE,68,6.7,6.7,68,0.00,,,0.00,WUHU216HW,2013-05-26 03:52:00,
2013-05-25 23:57:00,75.7,64.4,30.16,ENE,68,4.0,6.7,68,0.00,,,0.00,WUHU216HW,2013-05-26 03:57:00,